TimeCET,TemperatureF,Dew PointF,Humidity,Sea Level PressureIn,VisibilityMPH,Wind Direction,Wind SpeedMPH,Gust SpeedMPH,PrecipitationIn,Events,Conditions,WindDirDegrees,DateUTC
12:25 AM,60.8,55.4,82,29.68,6.2,South,16.1,-,N/A,,Unknown,190,2013-10-26 22:25:00
12:55 AM,60.8,55.4,82,29.65,6.2,SSW,17.3,-,N/A,,Unknown,200,2013-10-26 22:55:00
1:25 AM,59.0,55.4,88,29.65,6.2,South,17.3,-,N/A,,Unknown,190,2013-10-26 23:25:00
1:55 AM,60.8,55.4,82,29.65,6.2,South,16.1,-,N/A,,Unknown,190,2013-10-26 23:55:00
2:00 AM,59,54,79,29.65,22,SSW,15.7,,,,Partly Cloudy,200,2013-10-27 00:00:00
2:25 AM,59.0,53.6,82,29.62,6.2,South,15.0,-,N/A,,Unknown,190,2013-10-27 00:25:00
2:55 AM,59.0,53.6,82,29.62,6.2,SSW,17.3,-,N/A,,Unknown,200,2013-10-27 00:55:00
2:25 AM,59.0,53.6,82,29.62,6.2,SSW,18.4,-,N/A,,Unknown,200,2013-10-27 01:25:00
2:55 AM,59.0,53.6,82,29.62,6.2,South,18.4,29.9,N/A,,Unknown,190,2013-10-27 01:55:00
3:25 AM,59.0,53.6,82,29.59,6.2,South,17.3,-,N/A,,Unknown,190,2013-10-27 02:25:00
3:55 AM,59.0,53.6,82,29.59,6.2,South,18.4,-,N/A,,Unknown,190,2013-10-27 02:55:00
4:00 AM,58,53,78,29.59,22,South,17.9,,,,Overcast,190,2013-10-27 03:00:00
4:25 AM,59.0,53.6,82,29.56,6.2,South,19.6,31.1,N/A,,Unknown,190,2013-10-27 03:25:00
4:55 AM,59.0,53.6,82,29.56,6.2,South,18.4,-,N/A,,Overcast,190,2013-10-27 03:55:00
5:25 AM,59.0,53.6,82,29.53,6.2,South,23.0,-,N/A,,Overcast,190,2013-10-27 04:25:00
5:55 AM,59.0,53.6,82,29.50,6.2,South,21.9,35.7,N/A,,Overcast,190,2013-10-27 04:55:00
6:25 AM,59.0,53.6,82,29.50,6.2,South,20.7,-,N/A,,Mostly Cloudy,190,2013-10-27 05:25:00
6:55 AM,59.0,53.6,82,29.47,6.2,South,23.0,36.8,N/A,,Mostly Cloudy,190,2013-10-27 05:55:00
7:00 AM,59,53,75,29.48,14,South,22.4,,,Rain,Light Rain Showers,190,2013-10-27 06:00:00
7:25 AM,57.2,55.4,94,29.44,6.2,South,20.7,32.2,N/A,Rain,Light Rain,190,2013-10-27 06:25:00
7:55 AM,57.2,55.4,94,29.44,4.3,South,23.0,-,N/A,Rain,Light Rain Showers,180,2013-10-27 06:55:00
8:25 AM,57.2,55.4,94,29.44,6.2,South,20.7,-,N/A,Rain,Light Rain,190,2013-10-27 07:25:00
8:55 AM,57.2,55.4,94,29.44,6.2,SSW,23.0,-,N/A,Rain,Light Rain,210,2013-10-27 07:55:00
9:25 AM,59.0,55.4,88,29.44,6.2,SSW,19.6,-,N/A,,Mostly Cloudy,210,2013-10-27 08:25:00
9:55 AM,59.0,53.6,82,29.44,6.2,SSW,21.9,-,N/A,,Mostly Cloudy,210,2013-10-27 08:55:00
10:00 AM,59,53,73,29.46,11,SSW,24.6,,,Rain,Rain,210,2013-10-27 09:00:00
10:25 AM,57.2,51.8,82,29.44,6.2,SSW,26.5,39.1,N/A,,Scattered Clouds,210,2013-10-27 09:25:00
10:55 AM,55.4,51.8,88,29.44,-9999.0,SW,28.8,41.4,N/A,Rain,Heavy Rain Showers,220,2013-10-27 09:55:00
11:25 AM,57.2,51.8,82,29.47,6.2,SW,27.6,41.4,N/A,,Mostly Cloudy,230,2013-10-27 10:25:00
11:55 AM,59.0,50.0,72,29.47,6.2,WSW,29.9,44.9,N/A,,Partly Cloudy,240,2013-10-27 10:55:00
12:25 PM,57.2,51.8,82,29.47,6.2,SW,25.3,-,N/A,,Scattered Clouds,230,2013-10-27 11:25:00
12:55 PM,57.2,51.8,82,29.47,6.2,SW,20.7,34.5,N/A,,Mostly Cloudy,230,2013-10-27 11:55:00
1:00 PM,59,52,70,29.50,10,SW,22.4,,,Rain,Rain,220,2013-10-27 12:00:00
1:25 PM,59.0,50.0,72,29.47,6.2,SW,25.3,38.0,N/A,,Scattered Clouds,220,2013-10-27 12:25:00
1:55 PM,57.2,50.0,77,29.50,6.2,SW,26.5,38.0,N/A,Rain,Light Rain,220,2013-10-27 12:55:00
2:25 PM,57.2,50.0,77,29.50,6.2,SW,25.3,39.1,N/A,,Partly Cloudy,220,2013-10-27 13:25:00
2:55 PM,57.2,50.0,77,29.50,6.2,SW,26.5,41.4,N/A,,Unknown,220,2013-10-27 13:55:00
3:25 PM,59.0,50.0,72,29.50,6.2,SW,27.6,-,N/A,,Mostly Cloudy,220,2013-10-27 14:25:00
3:55 PM,57.2,51.8,82,29.50,6.2,SW,23.0,-,N/A,,Overcast,220,2013-10-27 14:55:00
4:00 PM,58,51,70,29.52,10,SW,24.6,,,,Partly Cloudy,220,2013-10-27 15:00:00
4:25 PM,57.2,51.8,82,29.50,6.2,SSW,20.7,-,N/A,,Mostly Cloudy,210,2013-10-27 15:25:00
4:55 PM,57.2,50.0,77,29.50,6.2,SSW,24.2,36.8,N/A,,Mostly Cloudy,210,2013-10-27 15:55:00
5:25 PM,57.2,51.8,82,29.53,6.2,SW,23.0,34.5,N/A,,Overcast,220,2013-10-27 16:25:00
5:55 PM,59.0,51.8,77,29.53,6.2,SW,21.9,34.5,N/A,,Mostly Cloudy,220,2013-10-27 16:55:00
6:25 PM,57.2,51.8,82,29.53,6.2,SW,20.7,-,N/A,,Scattered Clouds,230,2013-10-27 17:25:00
6:55 PM,57.2,51.8,82,29.53,6.2,SW,23.0,-,N/A,,Mostly Cloudy,220,2013-10-27 17:55:00
7:00 PM,58,51,70,29.55,7,SSW,22.4,,,Rain,Rain,210,2013-10-27 18:00:00
7:25 PM,57.2,50.0,77,29.53,6.2,SW,28.8,-,N/A,,Scattered Clouds,220,2013-10-27 18:25:00
7:55 PM,57.2,51.8,82,29.53,6.2,SSW,23.0,36.8,N/A,,Mostly Cloudy,210,2013-10-27 18:55:00
8:25 PM,57.2,50.0,77,29.53,6.2,SSW,24.2,35.7,N/A,,Mostly Cloudy,210,2013-10-27 19:25:00
8:55 PM,57.2,50.0,77,29.53,6.2,SSW,21.9,35.7,N/A,,Mostly Cloudy,210,2013-10-27 19:55:00
9:25 PM,57.2,50.0,77,29.53,6.2,SSW,25.3,38.0,N/A,,Partly Cloudy,210,2013-10-27 20:25:00
9:55 PM,57.2,50.0,77,29.53,6.2,SSW,27.6,-,N/A,,Partly Cloudy,210,2013-10-27 20:55:00
10:00 PM,57,50,70,29.55,9,SSW,24.6,,,,Scattered Clouds,210,2013-10-27 21:00:00
10:25 PM,57.2,50.0,77,29.53,6.2,SSW,20.7,35.7,N/A,,Mostly Cloudy,210,2013-10-27 21:25:00
10:55 PM,57.2,50.0,77,29.53,6.2,SSW,19.6,-,N/A,Rain,Drizzle,210,2013-10-27 21:55:00